GFSSGP_sfc_temp_210.txt.gz
Temp
86 95 98 94 85 87 80 80 86 85 86 91 92 92 89 91 84 77 97 100 96 98 95 90 80 81 81 80 80 80 80 80 80 80 80 80 80 80 80 80 80 81 82 82 82 82 82 82 82
96 92 94 96 82 79 78 83 81 85 88 91 92 92 90 84 94 95 97 95 97 97 94 94 79 80 80 80 80 80 80 80 80 80 80 80 80 80 80 80 80 81 82 82 82 82 82 82 81
92 93 90 86 85 79 79 82 84 87 89 90 89 93 90 84 93 94 96 96 97 96 97 90 80 80 80 80 79 79 79 79 80 80 80 80 80 79 79 80 80 81 82 82 82 82 81 81 81
89 94 92 80 76 77 79 83 86 87 89 92 92 86 90 94 92 94 96 97 97 100 99 83 79 79 80 80 80 79 79 79 79 80 80 80 80 79 79 80 80 81 82 82 81 81 81 81 81
96 93 85 73 71 78 82 85 87 86 86 89 91 85 87 94 99 98 97 97 98 100 100 93 80 79 80 80 80 79 79 79 79 80 80 80 79 79 79 80 80 81 81 81 81 80 80 80 80
90 92 80 74 73 77 83 86 87 87 89 88 89 87 88 99 98 100 100 97 100 97 97 94 81 79 79 79 79 79 79 79 79 79 79 79 79 79 79 79 80 80 80 80 80 80 79 79 79
86 85 81 78 76 76 79 87 84 85 86 85 90 84 90 95 99 100 101 100 99 98 97 95 95 86 79 79 79 78 78 78 79 79 79 79 79 79 79 79 79 80 79 79 79 79 79 79 79
94 91 77 79 76 73 81 85 88 86 83 92 93 83 84 92 97 101 102 102 102 100 100 97 94 98 93 93 79 78 78 78 78 78 78 78 78 79 79 78 79 79 79 79 79 79 79 79 79
89 82 76 74 75 76 84 82 88 89 86 88 89 88 90 94 96 98 98 98 104 101 101 101 100 97 96 97 91 79 78 78 78 79 78 79 90 89 88 84 79 79 79 79 79 79 79 79 79
89 85 74 79 80 79 82 83 83 84 83 84 86 91 93 93 93 91 92 95 97 98 99 102 99 96 95 95 94 91 93 91 90 90 88 90 92 93 93 88 79 79 79 79 79 79 79 79 95
83 77 78 79 81 82 81 82 85 82 79 83 82 86 90 91 90 92 94 94 95 97 99 100 98 93 94 96 95 95 94 93 92 90 90 89 93 92 92 93 89 88 81 90 85 86 89 93 96
77 79 79 80 81 80 79 83 80 83 83 86 86 87 89 90 90 89 89 92 94 95 95 96 97 94 93 95 95 95 95 94 92 92 89 88 89 90 91 93 93 90 93 90 93 94 92 92 91
78 78 80 81 81 81 81 79 80 81 85 86 87 87 88 89 89 91 91 91 91 90 92 94 93 90 91 90 91 92 94 94 94 92 91 90 85 87 90 91 93 94 94 94 93 93 91 89 89
78 79 79 81 80 81 78 79 79 83 85 85 85 86 88 88 88 89 90 88 86 85 86 88 88 88 91 90 85 88 93 95 92 93 92 88 89 86 83 90 90 92 93 95 94 92 90 90 91
79 75 78 78 78 77 79 75 75 82 83 82 83 86 86 87 88 86 86 84 84 84 82 81 82 87 85 87 90 88 93 95 93 94 90 87 85 86 86 90 90 90 92 92 92 92 90 90 91
74 75 70 78 76 77 76 68 79 82 80 79 83 84 84 84 84 84 84 83 83 81 79 79 82 81 82 83 88 91 94 94 94 94 94 87 85 84 83 87 89 91 90 90 92 90 90 90 90
73 67 66 70 77 74 74 69 79 84 81 79 81 83 83 82 81 81 82 82 81 80 78 77 78 79 78 80 85 89 89 92 94 95 94 90 84 83 81 85 87 88 89 90 90 90 89 88 89
64 65 68 67 74 73 71 72 78 81 81 80 81 82 81 79 78 79 80 81 81 80 78 77 78 75 77 79 79 87 90 89 89 93 94 90 87 84 81 83 84 79 85 89 89 86 89 88 89
69 67 65 70 74 68 68 70 75 79 81 80 80 79 77 78 79 79 79 80 80 78 77 75 75 74 77 80 80 86 87 86 83 85 89 89 87 84 80 80 83 83 76 82 85 85 83 86 88
68 66 66 70 71 69 68 68 74 77 78 78 76 77 76 77 78 77 79 78 78 77 76 75 74 73 76 79 79 79 85 89 90 89 88 88 88 84 79 75 81 82 83 72 73 81 85 86 88
68 64 63 63 67 70 68 66 71 74 75 76 77 77 77 76 76 76 77 77 78 76 76 75 73 73 74 73 80 80 81 83 85 88 89 88 87 84 80 78 83 83 81 82 73 72 77 80 86
61 68 64 62 61 56 69 53 67 70 70 73 75 75 76 76 76 77 77 77 76 77 78 76 74 73 75 73 74 72 76 77 84 87 89 89 86 85 85 83 84 83 84 82 81 81 70 70 74
63 66 64 63 59 59 61 55 65 67 65 70 73 74 76 78 77 77 77 77 78 78 78 77 74 73 72 72 71 73 74 78 82 84 83 84 86 85 87 86 85 81 84 84 83 80 76 78 68
67 65 65 65 60 50 60 56 59 66 66 69 72 74 75 77 77 78 78 78 79 79 78 76 74 71 72 72 71 70 69 71 74 77 81 85 87 88 85 86 85 79 82 84 84 80 79 79 76
66 60 47 48 47 49 59 53 58 67 70 71 71 74 76 77 78 78 77 78 76 76 75 75 73 70 71 70 71 70 69 70 70 75 79 80 84 87 85 83 84 81 78 83 84 82 79 79 78
61 58 47 35 43 50 60 51 61 68 71 72 73 73 74 75 78 77 77 76 76 74 73 73 72 70 70 69 69 69 70 73 75 76 79 81 84 86 86 83 83 83 81 82 83 83 81 80 77
59 52 60 46 50 46 55 62 66 68 68 71 72 72 72 74 73 74 75 74 73 72 72 71 71 70 70 67 68 68 69 69 70 70 74 79 80 83 84 84 82 82 82 83 81 83 80 76 76
61 65 48 47 32 38 52 54 56 62 63 67 67 68 71 72 73 74 74 72 72 73 72 72 71 70 69 69 69 69 68 69 70 71 72 76 78 80 81 82 82 82 82 82 79 77 79 76 72
59 54 55 53 50 38 40 50 66 63 66 65 67 67 66 69 71 72 73 73 73 73 73 70 70 69 69 68 68 67 68 68 69 70 72 76 78 79 79 81 81 81 81 80 77 77 78 74 70
62 57 57 42 43 49 45 44 67 67 61 61 65 63 64 69 70 71 72 72 70 69 69 68 67 67 68 68 67 67 67 68 67 69 71 75 75 78 81 81 82 82 82 80 78 77 76 73 68

GFSSGP_sfc_temp_216.txt.gz
Temp
83 94 95 93 80 83 79 85 94 91 91 96 80 77 69 71 65 58 71 100 96 91 86 87 81 81 81 80 80 80 79 79 79 80 80 80 80 80 80 80 81 81 82 82 82 82 82 82 82
89 98 99 91 76 72 73 90 87 90 94 98 89 72 64 63 72 79 83 99 96 92 90 87 80 80 80 80 80 80 79 79 79 79 80 80 80 80 80 80 81 81 82 82 82 82 82 82 81
88 98 88 86 79 71 75 87 89 94 97 96 90 91 83 78 85 90 97 98 97 94 89 82 80 80 80 80 80 80 80 79 80 80 80 80 80 80 80 80 81 82 82 82 82 82 81 81 81
96 97 88 76 72 82 83 87 92 94 96 98 93 86 91 97 94 98 101 101 99 96 87 81 80 80 80 80 80 80 80 80 80 80 80 80 80 79 79 80 81 81 82 82 82 81 81 81 81
97 93 81 75 71 83 88 90 93 92 93 95 92 85 87 97 101 101 102 103 96 92 88 85 80 80 80 80 80 80 80 80 80 80 80 80 80 79 79 80 80 81 82 82 81 81 80 80 80
84 91 77 73 74 82 86 90 91 92 94 94 91 88 89 101 100 100 97 95 98 93 88 85 81 80 80 80 80 80 80 80 80 80 80 80 79 79 79 80 80 81 81 81 81 80 80 80 80
83 80 78 79 80 80 82 87 87 88 90 89 94 87 91 95 101 103 103 103 102 95 91 87 86 83 80 80 80 79 79 79 79 79 79 79 79 79 79 79 80 80 80 80 80 80 79 79 79
90 85 80 82 79 79 86 86 89 88 85 96 97 84 82 92 100 105 105 104 104 100 97 93 88 87 85 83 79 79 79 79 79 79 79 79 79 79 79 78 79 80 80 80 79 79 79 79 79
95 79 76 80 79 81 89 86 90 92 89 90 93 91 94 97 100 99 99 102 102 100 102 99 93 93 92 89 83 79 80 79 79 79 79 78 81 82 82 81 81 79 79 79 79 79 79 78 78
88 77 80 86 86 82 87 87 89 85 87 85 87 93 96 96 96 93 94 96 98 98 100 93 92 90 98 93 84 84 84 83 82 83 81 80 83 84 86 84 80 79 79 79 79 79 78 78 80
90 80 85 85 85 88 84 85 91 85 82 88 87 88 92 94 91 92 93 94 95 96 96 97 89 87 92 93 85 91 90 87 85 84 83 82 85 84 87 86 83 80 79 80 79 79 79 81 82
83 86 87 88 87 85 84 89 85 87 88 92 91 91 92 92 91 89 90 92 93 92 91 93 89 85 83 88 90 91 92 89 87 86 84 83 84 83 83 87 84 81 82 80 81 81 80 80 82
85 85 86 88 87 86 88 84 84 86 92 93 92 91 90 92 92 93 90 92 89 88 87 89 85 82 81 81 83 84 87 90 90 87 86 87 84 82 84 84 85 84 85 82 82 83 82 82 83
87 86 86 87 87 86 82 84 86 87 92 90 89 89 90 92 93 93 92 88 84 83 84 84 83 83 84 80 79 80 83 88 87 87 89 86 84 82 82 83 82 80 81 86 84 83 83 83 85
87 79 83 84 85 82 85 77 79 89 91 88 87 88 89 91 93 91 91 85 85 83 79 79 80 81 78 79 80 80 82 88 86 88 87 85 84 78 82 84 82 82 82 83 82 84 84 82 84
81 81 75 84 84 84 80 69 83 90 88 84 86 87 88 89 91 93 89 86 83 81 78 78 81 78 76 76 79 80 81 81 83 86 87 87 84 84 82 83 82 84 82 83 82 81 81 81 81
80 73 75 78 87 83 79 72 83 88 87 84 85 86 87 88 90 89 88 87 82 79 78 78 77 75 74 76 77 79 78 79 81 84 86 87 87 87 83 83 83 82 80 80 80 80 80 79 79
69 69 73 73 81 82 78 76 82 85 85 84 85 86 87 88 89 85 86 84 82 81 79 77 76 73 74 75 74 77 79 79 80 83 85 85 86 86 82 83 81 80 79 79 79 75 78 80 79
75 72 70 76 82 78 75 75 78 82 83 82 84 85 85 86 88 84 84 84 82 80 79 76 74 73 73 73 73 73 73 74 78 80 82 84 87 86 79 78 79 79 78 78 78 75 72 76 79
74 70 70 76 80 77 74 72 77 80 81 84 84 84 84 85 85 83 82 82 81 78 77 78 75 73 72 73 71 73 72 75 77 79 78 82 84 82 80 76 76 78 78 78 77 75 72 75 77
73 70 70 69 73 75 72 68 73 81 84 85 84 84 84 83 83 82 80 80 81 79 77 76 75 76 73 72 72 72 71 72 74 73 76 77 78 82 80 78 74 74 77 77 76 76 73 70 74
67 76 73 69 65 58 71 55 67 75 77 81 81 82 82 83 83 83 80 80 79 80 80 77 75 75 76 73 70 68 68 68 70 72 74 73 75 77 78 79 79 77 77 73 76 76 76 72 71
67 74 70 68 64 63 64 59 66 75 72 76 80 82 83 84 84 82 82 81 82 81 80 79 77 76 76 75 73 69 67 68 70 71 69 69 71 73 77 68 64 61 74 74 75 75 75 76 71
75 70 69 68 65 54 63 62 62 69 71 75 80 81 82 83 84 84 84 83 82 78 76 72 72 75 76 75 73 69 67 66 67 67 67 69 73 75 77 71 62 63 65 72 74 76 74 73 75
73 63 49 47 48 49 65 60 63 71 77 77 76 77 80 81 83 80 80 80 79 77 74 72 67 74 75 74 72 70 68 67 65 66 69 67 71 73 74 66 61 60 67 73 75 75 75 74 74
65 62 50 39 42 49 61 52 61 73 74 76 75 74 75 73 71 67 64 67 63 64 74 77 75 73 74 73 71 70 68 69 68 67 68 67 68 69 69 72 72 68 68 74 75 73 72 74 74
63 57 67 53 55 48 55 62 71 72 68 69 67 67 67 71 66 66 63 61 56 55 72 74 73 73 73 71 69 68 67 67 67 66 66 68 67 70 71 71 69 73 73 71 73 73 74 75 73
67 70 53 53 38 38 50 52 56 63 64 64 60 62 64 68 67 67 62 60 57 60 71 72 73 72 72 71 70 69 67 67 67 66 65 66 66 67 67 68 69 72 71 65 63 70 73 73 74
63 60 62 59 53 39 39 48 65 63 65 64 64 66 66 66 65 65 65 64 63 62 67 73 72 72 71 69 69 67 67 67 66 65 66 66 66 66 67 68 69 71 73 67 66 69 74 74 73
68 63 61 43 42 49 44 44 67 66 67 66 63 63 61 60 63 64 67 67 62 64 70 69 69 70 70 70 69 67 66 65 63 64 65 66 65 66 67 68 69 70 73 73 72 73 73 74 73

GFSSGP_sfc_temp_219.txt.gz
Temp
75 83 80 76 66 65 59 67 77 78 68 72 75 71 68 71 67 59 70 73 77 80 80 82 80 80 80 80 79 79 78 78 79 79 79 79 79 79 80 80 80 81 81 81 82 82 81 81 81
80 83 82 74 61 53 59 73 73 74 69 73 74 74 72 65 73 74 76 78 86 83 79 79 80 80 80 80 79 79 79 79 79 79 79 79 79 79 79 80 80 81 81 82 82 82 81 81 81
79 86 71 66 59 55 59 71 75 84 75 78 69 75 71 68 75 72 80 84 86 82 79 79 80 79 80 79 79 79 79 79 79 79 79 79 79 79 79 79 80 81 82 82 82 81 80 80 80
80 78 77 62 61 71 66 73 77 83 86 87 71 71 71 82 78 77 86 86 84 80 78 79 79 79 79 79 79 79 79 79 79 79 79 79 79 78 79 79 80 80 81 81 81 80 80 80 80
77 72 64 62 62 71 77 78 80 78 84 85 86 78 76 86 88 90 80 84 80 77 78 79 79 79 80 80 79 79 79 79 79 79 79 79 79 78 79 79 80 80 81 81 81 80 80 79 79
70 69 57 54 68 73 70 76 77 79 80 86 82 80 79 87 89 90 84 75 75 78 78 80 80 79 79 79 79 79 79 79 79 79 79 79 78 78 79 79 79 80 80 80 80 79 79 79 79
64 63 56 59 66 70 73 73 72 75 76 79 87 74 77 86 91 92 83 79 80 81 81 78 79 80 79 79 78 78 78 78 78 78 78 78 78 78 78 79 79 79 79 79 79 79 78 78 78
73 69 65 64 62 61 76 77 74 77 78 89 89 73 68 82 91 89 89 87 85 84 82 78 77 78 76 77 79 78 78 78 78 78 78 78 78 78 78 78 78 79 79 79 79 78 78 78 78
77 62 59 65 65 65 75 69 77 82 80 85 86 82 84 90 92 88 85 84 88 86 82 77 78 77 77 78 79 78 79 78 78 78 78 77 75 75 77 78 78 79 79 79 78 78 78 78 78
71 61 66 73 71 67 75 75 77 78 79 78 83 86 89 90 87 82 79 78 81 81 81 83 80 79 78 86 77 75 77 76 76 76 76 75 75 75 79 78 78 79 79 78 78 78 78 78 73
68 63 74 74 77 76 75 78 79 78 71 76 78 81 85 86 80 81 83 80 76 76 79 78 79 77 79 77 76 77 75 75 75 76 75 74 77 77 78 78 79 76 78 76 77 75 74 73 72
64 75 77 74 78 74 73 80 77 77 71 84 83 84 84 80 79 79 78 80 76 76 77 77 77 75 74 73 74 75 77 77 76 77 76 76 76 76 78 76 78 76 77 75 74 74 74 73 75
66 72 77 76 73 70 78 76 76 75 81 85 86 85 83 81 79 80 81 75 75 74 75 75 76 75 74 73 74 73 72 75 79 78 79 79 78 76 76 76 78 77 77 76 76 75 75 75 76
72 73 73 74 73 72 71 74 74 78 84 82 83 78 76 80 76 76 76 74 73 73 72 74 73 71 72 72 71 72 71 74 76 76 80 78 78 78 75 76 76 77 79 78 77 78 77 77 78
74 64 72 72 74 71 74 67 71 79 81 79 79 79 77 78 82 77 73 71 72 71 69 70 71 70 68 68 70 69 69 74 72 77 76 81 78 75 77 77 76 77 76 78 78 78 78 78 78
67 63 54 70 74 74 71 57 73 78 77 75 78 79 80 78 78 76 73 71 71 70 68 68 72 68 66 66 68 70 71 70 69 71 76 77 78 78 78 77 76 77 77 76 74 74 75 79 79
60 53 58 66 73 71 67 60 73 78 76 73 73 75 77 77 78 73 74 72 70 68 67 67 66 66 66 66 66 67 68 69 70 70 72 75 78 79 76 79 78 74 74 74 74 73 73 73 75
55 57 59 60 69 68 64 63 70 72 73 72 72 72 73 74 74 74 73 73 71 68 68 67 66 66 65 64 64 64 65 67 67 70 72 74 74 78 75 74 73 73 71 70 72 71 71 72 73
65 61 59 64 72 65 61 62 66 70 69 69 70 71 72 68 72 73 74 73 71 68 66 66 65 64 64 62 61 61 61 66 67 68 72 72 74 74 74 75 73 73 71 71 70 68 67 69 71
65 60 59 65 70 65 61 63 68 70 71 73 74 72 71 68 71 73 71 70 69 67 66 65 65 64 63 62 62 61 61 62 64 64 66 68 71 72 72 72 69 71 69 68 70 69 67 68 69
62 59 58 58 64 64 60 57 60 71 74 75 70 71 71 70 66 70 71 69 68 67 66 65 65 64 64 64 62 61 61 61 62 67 69 69 69 70 69 71 70 69 66 66 66 70 68 67 68
55 67 65 62 54 44 58 45 57 62 66 70 67 68 69 71 71 69 69 68 67 67 67 66 65 65 65 64 61 59 57 56 58 61 66 67 68 67 68 68 69 68 65 62 64 69 69 68 67
60 67 62 60 53 49 53 44 57 61 64 64 69 70 70 69 70 68 69 71 69 70 66 68 65 64 64 63 62 59 58 58 59 59 60 64 66 67 67 68 66 64 63 67 68 68 69 66 66
70 62 58 54 49 37 50 48 45 55 56 59 62 62 64 64 63 62 63 63 60 64 63 61 60 61 64 64 64 61 59 58 57 57 59 62 65 66 65 64 62 62 64 65 68 69 68 69 69
62 49 33 33 32 35 53 47 47 56 61 60 60 61 62 62 60 60 57 55 59 56 57 59 57 58 60 65 63 62 60 59 58 57 57 59 60 64 65 61 61 59 59 60 63 65 67 69 69
54 47 34 30 29 39 51 40 48 60 64 64 63 63 64 61 61 58 57 56 55 58 58 58 57 58 58 64 62 62 60 58 59 58 57 59 62 63 64 63 62 61 62 61 61 61 63 67 69
54 44 53 41 42 36 42 50 57 62 63 60 60 61 59 56 57 59 56 59 58 59 59 57 57 58 65 62 61 60 59 59 58 59 57 57 59 64 66 64 61 62 65 64 62 60 64 65 66
56 59 40 39 31 30 39 41 44 50 54 58 55 55 57 59 58 60 59 59 59 60 60 58 60 62 63 61 61 61 60 59 59 57 57 57 59 62 62 63 62 61 62 65 63 62 66 64 62
53 47 47 44 44 27 29 35 56 51 50 50 51 52 53 53 54 54 55 57 57 57 57 58 59 61 62 60 59 58 57 57 57 56 56 56 59 60 60 61 62 62 62 64 62 60 62 62 63
58 54 49 36 37 41 38 38 55 54 55 55 57 55 52 54 54 54 55 58 59 59 59 58 59 58 59 58 57 57 56 55 53 53 54 55 57 59 59 60 61 62 64 63 65 62 64 65 68

GFSSGP_sfc_temp_222.txt.gz
Temp
73 76 75 73 65 65 56 63 68 64 65 69 74 72 71 72 70 59 76 81 79 78 78 81 80 80 80 80 79 79 78 78 79 79 79 79 80 80 80 80 80 81 81 81 81 81 81 81 81
74 82 76 68 59 57 57 65 61 65 69 75 75 73 72 68 75 74 74 80 79 78 77 78 80 80 80 79 79 79 79 79 79 79 79 79 79 79 79 80 80 81 81 81 81 81 81 81 80
78 81 68 64 54 55 57 66 64 70 73 73 71 74 73 71 76 74 78 80 79 80 77 78 79 79 79 79 79 79 79 78 79 79 79 79 79 79 79 79 80 81 82 81 81 81 80 80 80
75 73 69 60 58 61 63 68 70 68 72 75 74 72 75 79 77 77 75 78 80 77 77 79 79 79 79 79 79 79 79 79 79 79 79 79 79 79 79 79 79 80 81 81 81 80 80 79 79
72 66 59 54 58 70 71 77 78 73 74 74 77 72 73 79 79 74 70 71 75 76 77 78 79 79 79 80 79 79 79 78 79 79 79 79 78 78 79 79 79 80 80 81 80 79 79 79 79
67 63 54 52 60 69 74 76 79 74 75 76 76 76 74 81 73 73 73 71 75 77 79 78 80 79 79 79 79 79 78 78 78 79 79 79 78 78 78 79 79 79 80 80 80 79 79 78 78
63 58 51 51 63 64 72 77 75 74 76 74 79 73 75 78 75 75 77 77 77 81 80 77 78 79 79 79 79 78 78 78 78 78 78 78 78 78 78 78 79 79 79 79 79 79 78 78 78
68 62 55 55 58 59 73 73 76 75 73 83 83 72 68 80 76 77 73 73 74 78 78 75 76 76 76 77 79 79 78 78 78 78 78 78 78 78 78 77 78 79 79 79 78 78 78 77 77
69 57 51 57 60 63 72 68 76 81 78 77 78 78 82 85 81 74 74 75 77 79 75 75 75 74 75 77 78 78 79 79 78 78 78 77 75 75 76 77 77 78 78 78 78 78 77 77 77
65 55 57 66 64 61 65 69 72 76 74 72 77 81 86 85 81 76 75 74 75 73 74 71 73 76 76 83 75 74 76 75 75 75 75 74 73 73 77 77 78 78 78 78 78 78 78 77 72
63 60 66 69 72 70 69 71 73 72 65 72 74 77 81 81 78 77 77 76 75 75 75 75 72 75 74 74 73 73 73 73 73 74 74 73 75 73 75 73 75 74 77 75 76 75 75 72 71
63 68 72 71 74 70 69 72 72 72 70 78 79 81 79 77 75 75 73 72 70 71 72 72 72 71 70 72 72 72 72 73 73 73 73 72 72 71 72 73 73 73 74 73 72 73 72 71 71
63 67 73 72 70 68 72 71 70 68 77 80 81 82 80 76 77 71 71 71 69 70 69 69 69 69 71 71 68 68 68 70 72 74 74 74 73 73 74 74 74 74 73 73 71 71 72 71 72
67 67 70 69 67 68 68 70 71 74 77 77 78 76 76 77 76 71 69 68 68 68 66 67 67 66 68 66 65 65 66 68 70 72 74 75 75 73 72 73 72 72 74 74 74 73 72 72 72
70 66 67 67 66 66 72 68 69 76 74 74 75 75 77 78 74 70 68 66 68 67 67 67 67 66 65 65 65 67 67 70 66 69 72 74 74 72 72 70 71 74 75 75 74 74 72 71 73
64 59 53 67 69 70 68 57 70 76 71 71 74 75 77 77 76 71 68 66 66 66 65 65 70 65 64 64 64 65 67 66 66 67 66 71 73 75 74 72 71 74 71 74 74 73 72 73 75
57 50 52 62 66 66 63 58 69 72 71 69 70 71 74 73 68 68 69 68 66 65 63 63 64 64 64 63 63 62 63 63 65 65 65 68 70 73 69 72 72 71 70 68 68 67 68 68 70
51 51 53 54 63 62 59 59 67 70 69 69 68 69 69 71 66 67 68 68 67 66 64 63 63 63 62 62 61 61 61 63 62 64 68 66 68 69 66 68 72 71 69 68 68 67 67 66 67
60 56 54 59 65 60 54 57 62 66 64 65 67 66 68 66 68 69 69 69 67 65 63 61 61 60 61 60 60 59 58 60 62 61 65 65 66 66 65 64 68 69 69 69 69 68 68 69 68
61 55 53 59 64 59 57 56 61 65 65 66 68 70 65 62 66 67 67 67 65 63 62 61 61 61 61 61 59 59 57 59 59 61 62 64 65 65 66 62 64 68 68 67 67 68 67 68 67
55 54 52 54 58 57 56 52 58 65 61 63 60 62 62 63 63 64 65 63 63 63 62 62 61 62 61 61 60 59 57 57 57 60 62 63 64 64 63 63 64 67 66 65 66 66 66 66 65
51 61 60 59 51 42 55 39 52 54 56 59 58 58 61 59 59 59 60 61 61 61 62 60 61 61 61 61 59 58 56 55 55 55 57 59 62 62 64 64 65 65 65 62 63 63 65 65 64
56 63 57 56 48 43 48 40 47 52 51 53 55 59 57 58 59 58 57 58 59 61 59 59 59 60 61 61 61 59 56 56 56 55 56 56 58 61 63 62 61 60 61 63 64 64 64 65 65
64 57 52 48 42 35 43 43 41 45 50 53 56 58 60 59 57 57 57 57 57 58 61 61 57 57 59 59 60 58 57 56 55 55 54 55 55 57 60 61 59 59 59 60 61 63 65 66 66
57 45 31 32 30 33 46 43 43 52 55 55 55 58 60 59 59 59 58 57 58 60 61 62 60 61 59 59 58 59 58 57 56 55 54 54 54 56 57 57 58 58 60 60 58 57 60 61 62
49 45 31 29 27 38 47 38 44 55 58 58 58 57 57 54 55 58 58 58 59 60 59 60 60 60 59 58 57 59 58 57 56 55 55 54 53 55 57 58 58 59 61 61 61 59 59 59 62
52 41 49 38 37 32 38 44 51 54 55 55 54 56 54 56 57 58 59 59 58 57 57 58 59 60 60 59 58 57 57 57 56 56 54 54 54 59 59 58 57 58 60 60 60 60 61 59 62
51 54 38 34 28 28 35 37 39 45 49 51 50 50 51 53 53 54 56 56 57 57 56 56 57 58 58 58 57 57 56 56 55 54 53 53 53 54 56 56 57 57 59 59 59 60 62 60 61
47 43 43 40 37 29 29 32 49 45 48 48 49 51 50 51 52 53 53 54 54 56 55 55 54 54 54 55 55 54 54 54 54 52 52 52 52 53 54 56 56 57 56 57 58 59 61 61 61
51 46 44 32 32 34 33 31 49 50 49 51 52 52 50 50 50 52 53 54 55 54 54 54 54 54 54 54 54 53 53 52 51 51 51 51 50 52 53 54 55 56 56 57 57 59 61 62 60